TimeEST,TemperatureF,Dew PointF,Humidity,Sea Level PressureIn,VisibilityMPH,Wind Direction,Wind SpeedMPH,Gust SpeedMPH,PrecipitationIn,Events,Conditions,WindDirDegrees,DateUTC
12:53 AM,69.1,69.1,100,30.04,0.2,Calm,Calm,-,N/A,Fog,Fog,0,2014-01-02 05:53:00
1:53 AM,69.1,69.1,100,30.02,0.2,Calm,Calm,-,N/A,Fog,Fog,0,2014-01-02 06:53:00
2:53 AM,69.1,68.0,96,30.01,0.2,ENE,3.5,-,N/A,Fog,Fog,60,2014-01-02 07:53:00
3:53 AM,66.9,66.9,100,30.00,0.2,SE,3.5,-,N/A,Fog,Fog,130,2014-01-02 08:53:00
4:06 AM,66.2,66.2,100,29.99,0.8,SE,3.5,-,N/A,,Mist,130,2014-01-02 09:06:00
4:14 AM,66.2,66.2,100,29.99,0.8,ESE,3.5,-,N/A,,Mist,120,2014-01-02 09:14:00
4:35 AM,66.2,66.2,100,29.99,1.5,Calm,Calm,-,N/A,,Overcast,0,2014-01-02 09:35:00
4:44 AM,66.2,66.2,100,29.99,0.8,Calm,Calm,-,N/A,,Mist,0,2014-01-02 09:44:00
4:53 AM,66.9,66.0,97,29.99,0.8,Calm,Calm,-,N/A,,Overcast,0,2014-01-02 09:53:00
4:59 AM,66.2,66.2,100,29.98,1.0,Calm,Calm,-,N/A,,Overcast,0,2014-01-02 09:59:00
5:05 AM,66.2,66.2,100,29.98,1.8,Calm,Calm,-,N/A,,Overcast,0,2014-01-02 10:05:00
5:07 AM,66.2,66.2,100,29.98,3.0,Calm,Calm,-,N/A,,Mostly Cloudy,0,2014-01-02 10:07:00
5:15 AM,66.2,66.2,100,29.99,9.0,Calm,Calm,-,N/A,,Mostly Cloudy,0,2014-01-02 10:15:00
5:28 AM,66.2,66.2,100,29.98,9.0,SE,3.5,-,N/A,,Scattered Clouds,130,2014-01-02 10:28:00
5:53 AM,66.9,66.9,100,29.99,8.0,Calm,Calm,-,N/A,,Clear,0,2014-01-02 10:53:00
6:53 AM,66.9,66.0,97,29.99,10.0,SSE,4.6,-,N/A,,Clear,150,2014-01-02 11:53:00
7:53 AM,68.0,68.0,100,30.00,10.0,SSE,5.8,-,N/A,,Clear,160,2014-01-02 12:53:00
8:53 AM,70.0,70.0,100,30.00,10.0,South,5.8,-,N/A,,Clear,170,2014-01-02 13:53:00
9:53 AM,75.9,70.0,82,30.00,10.0,South,11.5,16.1,N/A,,Clear,170,2014-01-02 14:53:00
10:53 AM,78.1,68.0,71,30.00,10.0,South,12.7,21.9,N/A,,Clear,180,2014-01-02 15:53:00
11:53 AM,81.0,68.0,65,29.97,10.0,SSW,10.4,21.9,N/A,,Clear,210,2014-01-02 16:53:00
12:53 PM,81.0,69.1,67,29.94,10.0,SSW,15.0,26.5,N/A,,Clear,210,2014-01-02 17:53:00
1:53 PM,81.0,69.1,67,29.91,10.0,SSW,19.6,25.3,N/A,,Clear,200,2014-01-02 18:53:00
2:53 PM,80.1,69.1,69,29.90,10.0,SW,13.8,23.0,N/A,,Mostly Cloudy,220,2014-01-02 19:53:00
3:53 PM,79.0,69.1,72,29.90,10.0,SW,17.3,23.0,N/A,,Clear,220,2014-01-02 20:53:00
4:53 PM,77.0,71.1,82,29.90,10.0,SSW,11.5,19.6,N/A,,Mostly Cloudy,210,2014-01-02 21:53:00
5:53 PM,75.9,71.1,85,29.91,10.0,SW,10.4,-,N/A,,Mostly Cloudy,220,2014-01-02 22:53:00
6:41 PM,73.4,71.6,94,29.91,4.0,West,16.1,21.9,0.00,Rain,Light Rain,270,2014-01-02 23:41:00
6:53 PM,72.0,68.0,87,29.92,10.0,WSW,11.5,20.7,0.04,Rain,Light Rain,250,2014-01-02 23:53:00
7:53 PM,71.1,68.0,90,29.93,10.0,SW,4.6,-,0.00,,Mostly Cloudy,230,2014-01-03 00:53:00
8:53 PM,71.1,68.0,90,29.94,10.0,SW,4.6,-,N/A,,Overcast,230,2014-01-03 01:53:00
9:53 PM,71.1,69.1,93,29.96,10.0,WNW,4.6,-,0.02,,Mostly Cloudy,290,2014-01-03 02:53:00
10:06 PM,71.6,69.8,94,29.95,10.0,WNW,4.6,-,N/A,,Mostly Cloudy,290,2014-01-03 03:06:00
10:19 PM,71.6,69.8,94,29.95,8.0,West,6.9,-,0.00,Rain,Light Rain,280,2014-01-03 03:19:00
10:53 PM,71.1,66.9,87,29.96,7.0,West,6.9,-,0.01,Rain,Light Rain,260,2014-01-03 03:53:00
11:53 PM,69.1,66.9,93,29.95,10.0,WNW,4.6,-,0.00,,Mostly Cloudy,290,2014-01-03 04:53:00